Regional Weather Roundup
Issued by NWS Newport/Morehead, NC

Current Version | Previous Version | Graphics & Text | Print | Product List | Glossary Off
Versions: 1 2 3 4 5 6 7 8 9 10 11 12 13 14 15 16 17 18 19 20 21 22 23 24 25 26 27 28 29 30 31 32 33 34 35 36 37 38 39 40 41 42 43 44 45 46 47 48 49 50

000
ASUS42 KMHX 181613
RWRMHX
WEATHER ROUNDUP FOR EASTERN NORTH CAROLINA
NATIONAL WEATHER SERVICE NEWPORT/MOREHEAD CITY NC
1200 PM EDT SAT APR 18 2015

NOTE: "FAIR" INDICATES FEW OR NO CLOUDS BELOW 12,000 FEET
WITH NO SIGNIFICANT WEATHER AND/OR OBSTRUCTIONS TO VISIBILITY

NCZ015>017-031-032-045>047-102-103-181700-
NORTH COAST

CITY           SKY/WX    TMP DP  RH WIND       PRES   REMARKS
EDENTON        MOSUNNY   74  65  74 SW3       29.99F
ELIZABETH CITY MOSUNNY   79  64  60 CALM      29.99S
KITTY HAWK     MOSUNNY   73  64  73 NE7       29.99S
MANTEO         MOSUNNY   75  64  69 N6        30.00S

$$

NCZ045>047-081-094-103-104-181700-
CENTRAL COAST

CITY           SKY/WX    TMP DP  RH WIND       PRES   REMARKS
FRISCO         CLOUDY    70  63  78 VRB5      30.00S
SWANQUARTER      N/A     77 N/A N/A NE7       29.94F

$$

NCZ095-097-098-100-101-181700-
SOUTHERN COAST

CITY           SKY/WX    TMP DP  RH WIND       PRES   REMARKS
BEAUFORT       CLOUDY    71  68  90 SW6       30.00S
CEDAR ISLAND     N/A     72 N/A N/A NE3       30.03S
JACKSONVILLE   PTSUNNY   71  65  81 CALM      30.01R
PINEY ISLAND   CLOUDY   N/A N/A N/A NE6       30.00S
WILMINGTON     LGT RAIN  70  66  87 SE6       30.02R


$$

NCZ011>013-027>030-043-044-078>080-089-090>093-098-181700-
COASTAL PLAIN

CITY           SKY/WX    TMP DP  RH WIND       PRES   REMARKS
AHOSKIE        MOSUNNY   76  63  64 NE3       30.00S
CLINTON        CLOUDY    74  67  79 NE3       30.02S
ELIZABETHTOWN  CLOUDY    70  67  91 CALM      30.02S
GOLDSBORO      LGT RAIN  77  65  66 CALM      29.99S
GREENVILLE     PTSUNNY   73  63  68 CALM      30.02S
HAVELOCK       CLOUDY    74  65  73 CALM      30.01S
KENANSVILLE    CLOUDY    70  66  85 CALM      30.03S
KINSTON        PTSUNNY   75  64  69 CALM      30.01S
NEW BERN       CLOUDY    75  64  68 CALM      30.01S
RICHLANDS      CLOUDY    70  64  83 W5        30.02S
ROCKY MOUNT    MOSUNNY   73  64  73 CALM      30.02R
WASHINGTON     PTSUNNY   75  64  70 CALM      30.01R
WHITEVILLE     CLOUDY    70  65  85 CALM      30.01S

$$

AMZ130-135-150-152-154-156-158-170-250-252-270-ANZ085-086-088-633-658-670-181700-
MARINE OBSERVATIONS

STATION/POSITION TIME  TEMP    WIND        PRES    WAVE   SWELL
                       AIR SEA DIR/SP/G            HT/PER HT/PER
                 (UTC) (F)     (DEG/KT/KT) (MB)    (FT/S) (FT/S)
CHESAPEAKE LIGHT 1500   60      10/ 11/ 11 1016.7
64 E VA BEACH    1550   57 55  340/  6/  8 1015.7    4/11   3/11
DUCK             1500   64 54   10/  4/  4 1014.9
2 E DUCK         1511      57                N/A     3/ 8   2/11
10 NE DUCK       NOT AVBL
OREGON INLET     1500   67 60   40/  3/  4 1015.7
HATTERAS CG      1500   69 66  130/  3/  4 1015.5
DIAMOND BUOY     1550   71 75   30/  6/  8 1015.9    5/11   5/11
CAPE LOOKOUT     1600   69      20/  4/  5 1015.4
BEAUFORT LAB     1500   68 63  210/  2/  3 1015.4
27 SE WRIGHTSVLE 1500   67 73   40/ 14/ 16   N/A
5 SE WRIGHTSVLE  1500   64 63   40/ 10/ 12 1016.1
225 S CAPE HAT   1550   73 74  260/  8/ 10 1014.8    5/11   5/11
41 SE CHARLESTON 1550   70 74   10/ 10/ 12 1015.4    4/ 8   3/ 8

$$


USA.gov is the U.S. government's official web portal to all federal, state and local government web resources and services.